FW6321 Weather Reports


time (UTC)temp
C
wind
direction
speed
KPH
gust
KPH
rain 1hr
cm
rain 24hr
cm
rain mn
cm
humidity
%
barometer
mb
20260902165242 20 251 8.0 19.3 0.00 0.00 0.00 76 1020.0
20260902164741 20 202 6.4 14.5 0.00 0.00 0.00 76 1020.0
20260902164241 20 199 6.4 14.5 0.00 0.00 0.00 76 1020.0
20260902163739 20 185 8.0 14.5 0.00 0.00 0.00 76 1020.0
20260902163241 20 218 8.0 17.7 0.00 0.00 0.00 76 1020.0
20260902162740 20 229 6.4 17.7 0.00 0.00 0.00 76 1020.1
20260902162240 20 222 6.4 14.5 0.00 0.00 0.00 76 1020.1
20260902161741 20 204 8.0 16.1 0.00 0.00 0.00 76 1020.2
20260902161240 20 216 9.7 22.5 0.00 0.00 0.00 75 1020.1
20260902161211 20 230 9.7 22.5 0.00 0.00 0.00 75 1020.1
20260902160235 20 229 9.7 19.3 0.00 0.00 0.00 76 1020.3
20260902155735 20 173 11.3 19.3 0.00 0.00 0.00 76 1020.4
20260902155237 20 216 11.3 20.9 0.00 0.00 0.00 76 1020.4
20260902154735 20 228 9.7 20.9 0.00 0.00 0.00 77 1020.4
20260902154237 20 236 9.7 19.3 0.00 0.00 0.00 77 1020.5
20260902154219 20 259 9.7 17.7 0.00 0.00 0.00 77 1020.5
20260902153944 20 229 9.7 19.3 0.00 0.00 0.00 77 1020.5
20260902152731 20 220 11.3 20.9 0.00 0.00 0.00 76 1020.5
20260902152233 20 238 11.3 22.5 0.00 0.00 0.00 75 1020.5
20260902151734 20 223 11.3 24.1 0.00 0.00 0.00 75 1020.5
20260902151231 20 248 14.5 27.4 0.00 0.00 0.00 74 1020.6
20260902150734 20 190 12.9 27.4 0.00 0.00 0.00 74 1020.6
20260902150729 20 268 11.3 25.7 0.00 0.00 0.00 74 1020.6
20260902150445 20 270 11.3 25.7 0.00 0.00 0.00 73 1020.7
20260902145236 20 247 9.7 19.3 0.00 0.00 0.00 75 1020.6
20260902144735 20 233 11.3 24.1 0.00 0.00 0.00 75 1020.7
20260902144230 20 224 11.3 24.1 0.00 0.00 0.00 73 1020.7
20260902143732 20 245 14.5 30.6 0.00 0.00 0.00 73 1020.7
20260902143232 21 216 16.1 30.6 0.00 0.00 0.00 74 1020.7
20260902142731 21 241 12.9 25.7 0.00 0.00 0.00 74 1020.6
20260902142232 21 266 12.9 25.7 0.00 0.00 0.00 74 1020.6
20260902142207 21 246 14.5 25.7 0.00 0.00 0.00 72 1020.7
20260902141246 21 265 14.5 29.0 0.00 0.00 0.00 71 1020.6
20260902141234 21 184 12.9 25.7 0.00 0.00 0.00 72 1020.6
20260902140233 21 229 12.9 29.0 0.00 0.00 0.00 70 1020.6
20260902135732 21 212 12.9 27.4 0.00 0.00 0.00 71 1020.5
20260902135232 21 266 12.9 27.4 0.00 0.00 0.00 70 1020.6
20260902134732 21 239 11.3 24.1 0.00 0.00 0.00 71 1020.6
20260902134234 21 204 12.9 27.4 0.00 0.00 0.00 70 1020.5
20260902133731 21 229 14.5 27.4 0.00 0.00 0.00 69 1020.6
20260902133234 22 191 14.5 25.7 0.00 0.00 0.00 68 1020.6
20260902132730 22 245 16.1 30.6 0.00 0.00 0.00 67 1020.6
20260902132236 22 233 14.5 30.6 0.00 0.00 0.00 67 1020.6
20260902131733 22 208 11.3 27.4 0.00 0.00 0.00 69 1020.6
20260902131231 21 228 12.9 27.4 0.00 0.00 0.00 68 1020.6
20260902131151 22 229 14.5 29.0 0.00 0.00 0.00 67 1020.5
20260902130931 21 232 16.1 27.4 0.00 0.00 0.00 67 1020.6
20260902125939 21 280 12.9 29.0 0.00 0.00 0.00 69 1020.5
20260902124735 21 187 11.3 24.1 0.00 0.00 0.00 75 1020.6
20260902124231 20 208 12.9 22.5 0.00 0.00 0.00 75 1020.5
20260902124216 20 251 11.3 22.5 0.00 0.00 0.00 76 1020.7
20260902123234 20 233 6.4 17.7 0.00 0.00 0.00 80 1020.6
20260902122731 20 235 6.4 16.1 0.00 0.00 0.00 83 1020.6
20260902122720 20 225 8.0 16.1 0.00 0.00 0.00 83 1020.6
20260902121731 19 221 4.8 12.9 0.00 0.00 0.00 85 1020.6
20260902121232 19 241 4.8 12.9 0.00 0.00 0.00 85 1020.7
20260902120731 19 233 4.8 12.9 0.00 0.00 0.00 85 1020.7
20260902120231 19 235 4.8 12.9 0.00 0.00 0.00 84 1020.8
20260902115731 19 222 6.4 19.3 0.00 0.00 0.00 84 1020.8
20260902115232 19 202 9.7 19.3 0.00 0.00 0.00 83 1020.9
20260902114735 20 231 9.7 22.5 0.00 0.00 0.00 81 1021.0
20260902114724 20 233 9.7 22.5 0.00 0.00 0.00 81 1020.9
20260902113731 20 198 11.3 20.9 0.00 0.00 0.00 81 1020.9
20260902113231 20 261 9.7 20.9 0.00 0.00 0.00 81 1020.9
20260902112733 20 239 9.7 17.7 0.00 0.00 0.00 82 1020.9
20260902112230 20 185 9.7 17.7 0.00 0.00 0.00 82 1020.9
20260902111734 20 244 9.7 22.5 0.00 0.00 0.00 81 1021.0
20260902111232 20 248 9.7 22.5 0.00 0.00 0.00 81 1021.0
20260902110751 20 231 14.5 27.4 0.00 0.00 0.00 81 1020.9
20260902110735 20 238 11.3 24.1 0.00 0.00 0.00 81 1021.0
20260902110217 21 247 8.0 17.7 0.00 0.00 0.00 80 1020.9
20260902110209 21 181 9.7 25.7 0.00 0.00 0.00 79 1020.9
20260902105935 20 191 12.9 27.4 0.00 0.00 0.00 80 1020.9
20260902104232 21 229 8.0 17.7 0.00 0.00 0.00 80 1020.9
20260902103733 21 187 9.7 16.1 0.00 0.00 0.00 81 1020.8
20260902103231 21 261 8.0 17.7 0.00 0.00 0.00 81 1020.8
20260902102730 21 182 8.0 17.7 0.00 0.00 0.00 82 1020.8
20260902102230 21 196 8.0 16.1 0.00 0.00 0.00 82 1020.9
20260902102210 21 201 6.4 14.5 0.00 0.00 0.00 83 1020.9
20260902101232 20 216 8.0 19.3 0.00 0.00 0.00 83 1020.9
20260902100731 20 238 9.7 20.9 0.00 0.00 0.00 83 1021.0
20260902100231 20 214 8.0 20.9 0.00 0.00 0.00 85 1021.0
20260902095732 20 225 8.0 17.7 0.00 0.00 0.00 86 1020.9
20260902095233 19 190 8.0 16.1 0.00 0.00 0.00 87 1020.9
20260902094732 19 177 8.0 17.7 0.00 0.00 0.00 86 1020.9
20260902094233 19 192 8.0 17.7 0.00 0.00 0.00 87 1021.0
20260902093730 19 210 9.7 19.3 0.00 0.00 0.00 87 1021.0
20260902093232 19 234 8.0 19.3 0.00 0.00 0.00 87 1021.0
20260902093214 18 180 6.4 19.3 0.00 0.00 0.00 88 1020.9
20260902092231 18 182 8.0 19.3 0.00 0.00 0.00 89 1021.0
20260902091730 18 208 8.0 19.3 0.00 0.00 0.00 89 1020.9
20260902091717 18 241 8.0 19.3 0.00 0.00 0.00 89 1021.0
20260902090731 18 203 8.0 16.1 0.00 0.00 0.00 89 1021.0
20260902090234 18 210 6.4 16.1 0.00 0.00 0.00 89 1021.0
20260902085733 18 246 9.7 19.3 0.00 0.00 0.00 89 1020.9
20260902085229 18 251 8.0 19.3 0.00 0.00 0.00 89 1020.8
20260902084732 18 222 6.4 17.7 0.00 0.00 0.00 90 1020.8
20260902084232 18 254 6.4 14.5 0.00 0.00 0.00 90 1020.8
20260902083730 17 239 6.4 16.1 0.00 0.00 0.00 90 1020.7
20260902083231 17 228 8.0 16.1 0.00 0.00 0.00 90 1020.7
20260902082730 17 193 8.0 16.1 0.00 0.00 0.00 90 1020.6
20260902082236 17 208 6.4 14.5 0.00 0.00 0.00 90 1020.5
20260902081730 17 198 6.4 14.5 0.00 0.00 0.00 91 1020.4
20260902081230 17 221 4.8 12.9 0.00 0.00 0.00 91 1020.4
20260902080732 17 197 6.4 14.5 0.00 0.00 0.00 91 1020.4
20260902080232 17 233 6.4 14.5 0.00 0.00 0.00 91 1020.4
20260902080224 17 238 6.4 12.9 0.00 0.00 0.00 91 1020.4
20260902075230 16 196 8.0 17.7 0.00 0.00 0.00 91 1020.4
20260902074734 16 216 8.0 17.7 0.00 0.00 0.00 91 1020.4
20260902074232 16 205 4.8 12.9 0.00 0.00 0.00 92 1020.4
20260902073734 16 199 4.8 11.3 0.00 0.00 0.00 92 1020.3
20260902073235 16 204 6.4 14.5 0.00 0.00 0.00 92 1020.1
20260902072727 16 232 6.4 14.5 0.00 0.00 0.00 92 1020.2
20260902072228 16 223 8.0 16.1 0.00 0.00 0.00 92 1020.1
20260902071728 16 201 8.0 17.7 0.00 0.00 0.00 92 1020.2
20260902071228 16 212 9.7 19.3 0.00 0.00 0.00 92 1020.1
20260902070728 16 251 8.0 19.3 0.00 0.00 0.00 92 1020.1
20260902070229 16 180 8.0 16.1 0.00 0.00 0.00 92 1020.2
20260902065726 16 184 8.0 16.1 0.00 0.00 0.00 92 1020.1
20260902065228 16 189 8.0 19.3 0.00 0.00 0.00 92 1020.0
20260902064730 16 219 8.0 19.3 0.00 0.00 0.00 92 1020.0
20260902064227 16 172 6.4 16.1 0.00 0.00 0.00 92 1020.0
20260902063730 16 181 6.4 14.5 0.00 0.00 0.00 92 1020.0
20260902063228 15 177 6.4 12.9 0.00 0.00 0.00 92 1020.1
20260902062733 15 197 4.8 9.7 0.00 0.00 0.00 93 1020.1
20260902062727 15 191 4.8 12.9 0.00 0.00 0.00 93 1020.1
20260902062209 15 199 4.8 11.3 0.00 0.00 0.00 93 1019.9
20260902061218 15 186 4.8 11.3 0.00 0.00 0.00 93 1020.0
20260902060718 15 174 6.4 12.9 0.00 0.00 0.00 93 1019.9
20260902060216 15 158 6.4 12.9 0.00 0.00 0.00 93 1019.7
20260902055714 15 147 6.4 12.9 0.00 0.00 0.00 93 1019.8
20260902055215 15 233 6.4 14.5 0.00 0.00 0.00 93 1020.0
20260902054714 14 191 6.4 14.5 0.00 0.00 0.00 93 1019.9
20260902054215 14 193 6.4 12.9 0.00 0.00 0.00 93 1019.9
20260902053715 14 191 6.4 12.9 0.00 0.00 0.00 93 1019.8
20260902053215 14 179 4.8 9.7 0.00 0.00 0.00 92 1019.9
20260902052715 14 185 4.8 9.7 0.00 0.00 0.00 92 1019.7
20260902052216 14 179 6.4 9.7 0.00 0.00 0.00 92 1019.6
20260902051712 14 166 6.4 14.5 0.00 0.00 0.00 92 1019.7
20260902051211 14 172 6.4 14.5 0.00 0.00 0.00 92 1019.8
20260902050713 14 177 4.8 14.5 0.00 0.00 0.00 92 1019.7
20260902050210 14 164 4.8 12.9 0.00 0.00 0.00 92 1019.6
20260902045711 14 173 6.4 12.9 0.00 0.00 0.00 92 1019.7
20260902045210 14 177 6.4 11.3 0.00 0.00 0.00 92 1019.6
20260902045153 14 186 4.8 11.3 0.00 0.00 0.00 92 1019.6
20260902044209 14 171 4.8 11.3 0.00 0.00 0.00 92 1019.6
20260902043710 14 208 6.4 12.9 0.00 0.00 0.00 92 1019.5
20260902043206 14 181 6.4 12.9 0.00 0.00 0.00 92 1019.6
20260902042707 14 202 4.8 11.3 0.00 0.00 0.00 92 1019.7
20260902042653 14 180 4.8 11.3 0.00 0.00 0.00 92 1019.5
20260902041706 14 179 6.4 12.9 0.00 0.00 0.00 92 1019.6
20260902041654 14 154 4.8 11.3 0.00 0.00 0.00 92 1019.5
20260902041417 14 162 6.4 12.9 0.00 0.00 0.00 92 1019.6
20260902040205 14 166 4.8 12.9 0.00 0.00 0.00 92 1019.5
20260902035710 14 177 6.4 12.9 0.00 0.00 0.00 92 1019.6
20260902035209 14 169 4.8 9.7 0.00 0.00 0.00 92 1019.7
20260902034706 14 168 4.8 9.7 0.00 0.00 0.00 92 1019.7
20260902034205 14 173 4.8 9.7 0.00 0.00 0.00 92 1019.8
20260902033705 14 163 4.8 11.3 0.00 0.00 0.00 92 1019.8
20260902033641 14 183 4.8 11.3 0.00 0.00 0.00 92 1019.8
20260902032704 14 175 4.8 9.7 0.00 0.00 0.00 92 1019.9
20260902032203 14 172 4.8 12.9 0.00 0.00 0.00 92 1019.9
20260902031708 14 184 4.8 12.9 0.00 0.00 0.00 92 1019.9
20260902031204 14 159 4.8 11.3 0.00 0.00 0.00 92 1020.0
20260902030706 14 171 4.8 12.9 0.00 0.00 0.00 92 1020.0
20260902030205 14 167 4.8 12.9 0.00 0.00 0.00 92 1020.1
20260902025706 14 196 4.8 9.7 0.00 0.00 0.00 92 1020.1
20260902025637 15 167 4.8 9.7 0.00 0.03 0.00 92 1020.1
20260902024708 15 170 4.8 8.0 0.00 0.03 0.00 92 1020.2
20260902024656 15 181 4.8 9.7 0.00 0.03 0.00 92 1020.1
20260902023705 15 181 4.8 9.7 0.00 0.03 0.00 92 1020.1
20260902023208 15 178 4.8 8.0 0.00 0.03 0.00 92 1020.1
20260902023148 15 167 3.2 8.0 0.00 0.03 0.00 92 1020.1
20260902022203 14 170 3.2 8.0 0.00 0.03 0.00 93 1020.1
20260902021703 14 189 4.8 9.7 0.00 0.03 0.00 93 1020.3
20260902021651 14 164 4.8 9.7 0.00 0.03 0.00 93 1020.2
20260902020704 14 154 3.2 6.4 0.00 0.03 0.00 93 1020.2
20260902020206 14 158 3.2 6.4 0.00 0.03 0.00 93 1020.4
20260902015706 14 168 4.8 8.0 0.00 0.03 0.00 93 1020.4
20260902015206 14 165 4.8 8.0 0.00 0.03 0.00 93 1020.5
20260902014705 14 180 3.2 8.0 0.00 0.03 0.00 93 1020.3
20260902014203 14 170 3.2 8.0 0.00 0.03 0.00 93 1020.4
20260902013704 14 166 4.8 8.0 0.00 0.03 0.00 93 1020.4
20260902013205 14 164 4.8 8.0 0.00 0.03 0.00 93 1020.3
20260902012704 14 175 3.2 8.0 0.00 0.03 0.00 93 1020.4
20260902012207 14 185 3.2 6.4 0.00 0.03 0.00 93 1020.3
20260902011702 14 174 3.2 6.4 0.00 0.03 0.00 93 1020.3
20260902011205 14 181 3.2 8.0 0.00 0.03 0.00 93 1020.4
20260902010700 14 185 3.2 8.0 0.00 0.03 0.00 93 1020.4
20260902010648 14 208 3.2 6.4 0.00 0.03 0.00 93 1020.5
20260902005649 14 175 3.2 6.4 0.00 0.03 0.00 93 1020.5
20260902005141 14 152 3.2 6.4 0.00 0.03 0.00 93 1020.5
20260902005129 14 202 3.2 6.4 0.00 0.03 0.00 93 1020.6
20260902004143 14 177 3.2 9.7 0.00 0.03 0.00 93 1020.6
20260902003642 13 182 4.8 9.7 0.00 0.03 0.00 93 1020.5
20260902003142 13 177 4.8 8.0 0.00 0.03 0.00 93 1020.6
20260902002644 13 167 4.8 8.0 0.00 0.03 0.00 93 1020.6
20260902002144 13 176 3.2 8.0 0.00 0.03 0.00 93 1020.6
20260902001642 13 170 3.2 8.0 0.00 0.03 0.00 93 1020.6
20260902001141 13 178 3.2 8.0 0.00 0.03 0.00 93 1020.7
20260902000640 13 171 3.2 6.4 0.00 0.03 0.00 92 1020.7
20260902000138 13 164 3.2 8.0 0.00 0.03 0.00 92 1020.7
20260901235636 13 164 3.2 8.0 0.00 0.03 0.00 92 1020.6
20260901235133 13 179 3.2 6.4 0.00 0.03 0.00 92 1020.6
20260901234635 13 189 1.6 4.8 0.00 0.03 0.00 91 1020.6
20260901234131 13 189 1.6 4.8 0.00 0.03 0.00 91 1020.6
20260901233831 13 189 0.0 4.8 0.00 0.03 0.00 91 1020.7
20260901233340 13 189 0.0 3.2 0.00 0.03 0.00 91 1020.7
20260901232131 13 189 1.6 4.8 0.00 0.03 0.00 91 1020.7
20260901231631 13 189 1.6 4.8 0.00 0.03 0.00 91 1020.8
20260901231131 13 189 0.0 3.2 0.00 0.03 0.00 91 1020.9
20260901230632 14 189 0.0 4.8 0.00 0.03 0.00 91 1021.0
20260901230132 14 189 1.6 4.8 0.00 0.03 0.00 90 1021.0
20260901225630 14 189 1.6 4.8 0.00 0.03 0.00 90 1021.0
20260901225132 14 189 1.6 4.8 0.00 0.03 0.00 90 1021.0
20260901224631 14 189 1.6 6.4 0.00 0.03 0.00 90 1021.1
20260901224131 14 189 1.6 6.4 0.00 0.03 0.00 90 1021.0
20260901223637 14 190 3.2 8.0 0.00 0.03 0.00 90 1020.9
20260901223132 14 190 3.2 8.0 0.00 0.05 0.00 90 1020.9
20260901223107 14 190 3.2 4.8 0.00 0.15 0.00 89 1021.0
20260901222133 14 193 1.6 4.8 0.00 0.36 0.00 89 1021.0
20260901221631 14 196 1.6 4.8 0.00 0.38 0.00 89 1021.0
20260901221133 14 190 1.6 4.8 0.00 0.38 0.00 89 1020.9
20260901221100 15 194 3.2 4.8 0.00 0.38 0.00 89 1021.0
20260901220835 14 194 3.2 4.8 0.00 0.38 0.00 89 1020.9
20260901215633 15 195 1.6 4.8 0.00 0.38 0.38 89 1020.9
20260901215132 15 194 3.2 4.8 0.00 0.38 0.38 89 1020.9
20260901214631 15 195 3.2 6.4 0.00 0.38 0.38 89 1020.9
20260901214133 15 219 3.2 6.4 0.00 0.38 0.38 89 1021.0
20260901214123 15 197 1.6 6.4 0.00 0.38 0.38 89 1021.0
20260901213132 15 197 1.6 3.2 0.00 0.38 0.38 89 1020.9
20260901212629 15 197 1.6 3.2 0.00 0.38 0.38 89 1020.8
20260901212131 15 202 1.6 3.2 0.00 0.38 0.38 89 1020.8
20260901211630 15 208 1.6 3.2 0.00 0.38 0.38 88 1021.1
20260901211130 15 213 0.0 3.2 0.00 0.38 0.38 88 1021.2
20260901210629 15 213 1.6 3.2 0.00 0.38 0.38 88 1021.3
20260901210130 15 213 1.6 6.4 0.00 0.38 0.38 88 1021.4
20260901205630 15 213 3.2 6.4 0.00 0.38 0.38 88 1021.4
20260901205127 15 232 3.2 4.8 0.00 0.38 0.38 87 1021.5
20260901204629 15 224 1.6 4.8 0.00 0.38 0.38 87 1021.5
20260901204128 15 202 1.6 3.2 0.00 0.38 0.38 87 1021.4
20260901203628 15 202 1.6 4.8 0.00 0.38 0.38 86 1021.4
20260901203128 15 202 1.6 4.8 0.00 0.38 0.38 86 1021.4
20260901202629 15 202 1.6 4.8 0.00 0.38 0.38 85 1021.4
20260901202326 15 202 1.6 4.8 0.00 0.38 0.38 85 1021.4
20260901201831 15 202 3.2 4.8 0.00 0.38 0.38 85 1021.3
20260901200625 15 202 3.2 4.8 0.00 0.38 0.38 84 1021.2
20260901200617 15 202 3.2 4.8 0.00 0.38 0.38 83 1021.4
20260901195625 15 202 3.2 4.8 0.00 0.38 0.38 83 1021.3
20260901195328 15 202 1.6 3.2 0.00 0.38 0.38 82 1021.3
20260901194837 15 202 1.6 4.8 0.00 0.38 0.38 81 1021.4
20260901193623 15 202 1.6 3.2 0.00 0.38 0.38 80 1021.1
20260901193120 16 202 1.6 3.2 0.00 0.38 0.38 79 1021.1
20260901192620 16 202 0.0 1.6 0.00 0.38 0.38 79 1021.0
20260901192605 16 202 0.0 4.8 0.00 0.38 0.38 78 1021.0
20260901191633 16 202 1.6 3.2 0.00 0.38 0.38 78 1021.0
20260901191618 16 202 1.6 4.8 0.00 0.38 0.38 78 1021.0
20260901190613 16 202 1.6 4.8 0.00 0.38 0.38 77 1021.1
20260901190543 17 202 1.6 4.8 0.00 0.38 0.38 76 1021.0
20260901185615 17 205 1.6 4.8 0.00 0.38 0.38 76 1021.0
20260901185112 17 202 3.2 4.8 0.00 0.38 0.38 76 1021.0
20260901184610 17 211 3.2 6.4 0.00 0.38 0.38 75 1021.0
20260901184109 17 210 3.2 6.4 0.00 0.38 0.38 75 1021.0
20260901183609 17 215 3.2 6.4 0.00 0.38 0.38 75 1021.0
20260901183111 18 239 1.6 6.4 0.00 0.38 0.38 74 1020.9
20260901182611 18 234 3.2 6.4 0.00 0.38 0.38 74 1020.8
20260901182110 18 229 3.2 11.3 0.00 0.38 0.38 73 1020.8
20260901181614 18 224 4.8 11.3 0.00 0.38 0.38 73 1020.8
20260901181111 18 191 4.8 14.5 0.00 0.38 0.38 73 1020.9
20260901180612 18 252 4.8 14.5 0.00 0.38 0.38 72 1020.9
20260901180113 18 265 4.8 11.3 0.00 0.38 0.38 72 1020.9
20260901175610 18 235 4.8 11.3 0.00 0.38 0.38 72 1020.8
20260901175112 18 294 4.8 11.3 0.00 0.38 0.38 71 1020.8
20260901174609 19 247 6.4 12.9 0.00 0.38 0.38 71 1020.8
20260901174552 19 229 6.4 12.9 0.00 0.38 0.38 70 1020.9
20260901173609 19 244 8.0 12.9 0.00 0.38 0.38 70 1020.8
20260901173112 19 227 6.4 17.7 0.00 0.38 0.38 70 1020.9
20260901172612 19 243 6.4 17.7 0.00 0.38 0.38 70 1021.0
20260901172108 20 270 6.4 14.5 0.00 0.38 0.38 70 1021.0
20260901171611 20 244 9.7 22.5 0.00 0.38 0.38 69 1021.0
20260901171110 20 245 9.7 22.5 0.00 0.38 0.38 69 1020.9
20260901170611 20 240 9.7 20.9 0.00 0.38 0.38 68 1021.0
20260901170109 20 270 12.9 22.5 0.00 0.38 0.38 68 1021.0